Location: Teplice
(50.6330°N, 13.8330°E)
Time: 21:33:02
(UTC+01:00)

ISS - Visible Passes

Search period start: 25 March 2023 00:00
Search period end: 04 April 2023 01:00
Orbit: 414 x 422 km, 51.6° (Epoch: 25 March)

Date Brightness Start Highest point End Pass type
(mag) Time Alt. Az. Time Alt. Az. Time Alt. Az.
25 Mar -3.7 19:31:04 10° W 19:34:26 73° N 19:36:44 19° E visible
25 Mar -1.8 21:07:55 10° WNW 21:09:40 28° W 21:09:40 28° W visible
26 Mar -3.9 21:19:54 10° WNW 21:23:15 76° SSW 21:23:36 66° SE visible
27 Mar -3.8 20:31:51 10° WNW 20:35:13 88° NNE 20:37:29 19° ESE visible
27 Mar -1.6 22:08:47 10° W 22:10:25 22° WSW 22:10:25 22° WSW visible
28 Mar -3.1 21:20:35 10° W 21:23:47 43° SSW 21:24:16 39° S visible
29 Mar -3.5 20:32:24 10° WNW 20:35:42 59° SSW 20:38:07 17° SE visible
29 Mar -1.1 22:09:56 10° WSW 22:11:02 14° WSW 22:11:02 14° WSW visible
30 Mar -2.0 21:21:18 10° W 21:23:57 22° SW 21:24:52 20° SSW visible
31 Mar -2.4 20:32:50 10° W 20:35:51 31° SSW 20:38:43 11° SSE visible
01 Apr -0.9 21:23:07 10° SW 21:23:44 10° SW 21:24:21 10° SW visible
02 Apr -1.2 20:33:30 10° W 20:35:37 16° SW 20:37:44 10° S visible
